Theta_e
317 317 316 315 315 316 316 316 315 315 315 315 314 314 314 314 315 315 316 317 317 318 318 319 320 322 323 313 311 324 338 333 324 319 315 313 310 311 308 309 309 307 308 309 310 310 311
318 317 317 316 316 316 315 315 315 315 315 315 315 314 313 314 314 315 316 316 316 316 317 319 321 321 318 307 319 323 323 321 319 317 315 315 312 312 308 307 308 309 309 309 310 310 311
319 318 317 317 316 315 315 315 315 314 314 314 314 314 314 313 313 314 315 316 315 316 317 319 321 323 315 311 321 324 322 318 319 317 313 315 315 313 312 308 311 309 306 308 309 310 309
319 318 317 317 316 315 314 314 314 314 314 314 313 313 313 313 313 314 315 315 316 318 318 320 322 322 311 321 325 322 321 318 318 319 316 317 317 314 312 313 310 307 307 303 308 309 309
319 319 318 316 315 314 314 314 314 314 314 314 313 312 312 312 313 313 314 315 319 319 320 321 323 320 310 320 316 318 319 314 315 315 316 315 316 312 312 308 306 305 301 301 303 308 308
319 318 318 316 314 313 314 313 313 313 313 313 313 312 312 313 313 313 313 315 321 321 322 323 321 315 314 311 316 316 318 316 314 314 313 312 312 309 309 306 300 300 300 302 301 306 306
318 318 317 316 314 313 313 313 312 313 313 313 312 312 312 312 313 313 315 321 316 314 317 311 311 310 312 316 318 314 315 314 314 312 306 309 306 302 304 305 305 303 302 300 303 306 304
318 317 317 315 312 313 313 312 312 312 312 312 312 312 312 312 313 313 319 316 314 315 310 312 312 312 313 315 309 312 315 309 308 304 307 306 302 305 306 305 304 303 301 301 304 305 305
318 317 316 315 312 312 312 312 311 311 311 311 310 311 311 312 313 316 319 315 319 317 311 309 312 311 312 314 308 308 312 309 306 303 303 302 303 307 304 303 302 303 301 301 301 304 307
317 315 315 314 312 312 312 311 311 311 311 310 310 310 310 310 314 319 316 319 320 319 305 305 308 310 311 311 306 312 313 310 307 302 303 302 305 303 304 302 303 300 304 303 302 301 297
317 315 315 314 312 311 311 311 310 310 310 309 309 310 310 310 316 317 317 321 321 320 295 307 307 314 311 307 309 309 314 311 304 303 303 300 301 301 300 300 304 301 305 304 303 301 300
317 315 315 313 312 311 310 310 310 310 309 309 309 309 309 317 319 316 322 321 322 306 294 302 307 306 306 307 307 310 310 312 310 304 303 302 305 303 302 303 303 305 304 304 303 300 295
317 315 314 313 311 311 310 309 309 309 309 308 309 309 311 319 316 322 322 318 302 298 306 301 301 305 305 304 304 305 304 304 302 297 297 300 300 303 304 302 305 305 302 296 293 294 293
316 315 314 313 311 310 309 309 309 308 308 307 307 306 313 320 324 323 319 307 296 302 302 304 303 304 302 304 303 303 302 300 303 301 300 296 293 299 303 302 301 302 302 296 285 291 294
316 316 314 312 310 310 309 308 308 308 307 306 305 312 322 326 322 322 312 299 299 302 305 302 302 300 300 302 302 302 301 301 302 303 299 297 295 302 302 305 307 302 302 304 296 299 294
316 316 314 311 309 309 308 308 308 308 307 306 305 311 317 322 325 319 306 298 303 306 304 304 299 300 297 299 298 299 300 303 302 304 306 301 295 300 301 306 306 305 306 299 300 287 287
315 315 313 310 309 308 308 307 308 307 306 305 308 307 320 322 320 311 302 303 305 307 306 303 301 299 299 298 299 299 300 303 305 304 306 304 299 299 300 300 300 302 301 300 300 299 291
315 315 312 309 308 307 307 307 308 307 305 304 306 302 318 321 308 309 305 306 303 305 308 304 304 301 300 300 299 299 300 302 307 306 301 304 301 295 296 302 304 304 302 300 297 292 297
314 315 311 308 307 307 307 307 307 307 305 303 300 305 322 319 303 304 308 306 307 305 305 304 302 303 304 301 298 300 302 307 307 305 303 304 299 293 295 300 303 301 303 303 302 301 295
314 315 311 307 307 306 306 306 307 306 305 305 304 302 312 314 312 306 305 305 304 307 305 305 304 305 303 301 303 301 302 306 307 306 306 306 300 296 294 296 299 297 299 301 301 296 297
314 314 310 307 306 306 306 305 306 306 305 307 306 305 305 304 305 305 306 304 304 302 306 307 304 304 303 300 301 300 302 303 305 306 305 306 298 299 299 300 300 299 299 300 299 300 297
313 314 309 307 306 305 305 305 305 306 305 305 301 303 307 302 304 303 300 304 302 303 304 303 303 305 305 302 302 300 301 302 302 306 304 307 299 299 297 299 299 297 300 301 301 301 300
313 311 307 306 306 305 304 304 305 306 305 299 306 306 303 299 299 299 301 303 302 303 304 305 305 304 303 304 307 307 307 307 305 304 303 303 300 297 293 298 299 295 300 301 302 303 302
307 307 307 307 306 305 304 304 304 305 304 303 303 304 299 293 296 296 299 300 301 302 302 304 306 305 307 311 311 309 308 307 306 305 307 302 301 299 294 297 288 301 306 305 303 303 305
307 307 306 307 307 305 304 303 303 304 305 304 306 303 302 295 296 295 297 300 302 303 302 304 305 307 309 308 302 298 298 298 300 303 304 306 303 296 293 293 297 299 303 303 301 301 306
307 306 306 306 307 306 304 303 303 303 304 304 306 307 304 298 296 297 297 299 298 301 302 303 307 310 310 305 300 293 291 293 293 299 305 306 305 299 297 292 289 299 304 306 306 297 306
306 306 306 305 306 306 304 303 303 303 304 304 305 308 303 298 301 301 298 300 303 301 300 303 305 305 309 302 297 294 293 297 291 292 297 299 299 296 296 292 297 306 305 306 295 298 307
304 304 304 305 305 305 303 303 303 303 303 303 304 308 303 299 301 302 303 301 302 302 298 303 301 302 302 298 296 296 295 297 295 298 298 298 296 296 297 293 289 306 304 299 304 308 307
303 304 303 303 304 304 303 303 302 302 302 302 300 306 307 299 299 305 305 307 306 306 303 303 301 302 304 299 300 302 296 300 297 292 302 295 300 299 299 300 307 307 304 306 307 306 307
Wind_Speed
17 17 18 18 19 18 18 17 17 17 17 18 19 19 18 17 16 15 15 14 14 13 11 11 11 10 7 5 9 5 5 6 5 4 6 4 5 1 3 2 3 4 5 4 4 6 7
17 17 17 18 18 18 18 19 19 19 18 18 18 18 19 18 17 16 14 13 13 12 10 9 9 12 6 8 4 3 3 4 4 4 4 5 5 4 3 1 6 1 3 4 3 3 5
16 17 17 17 17 18 18 19 19 19 19 19 19 19 18 19 18 17 15 14 12 12 9 7 7 6 7 8 2 1 3 2 1 3 2 3 2 4 1 5 1 4 9 8 6 5 7
16 17 17 17 18 18 19 20 21 20 20 20 20 20 19 19 18 17 16 15 12 7 5 5 5 5 4 3 2 6 1 5 2 0 2 2 3 1 4 1 6 6 8 12 7 6 4
17 17 17 18 18 19 20 20 21 22 22 22 21 21 20 21 19 17 15 12 2 4 3 5 6 6 8 5 3 4 4 4 5 3 4 3 4 2 6 7 8 6 4 3 9 1 3
18 18 18 18 18 19 20 21 22 22 23 24 23 23 21 19 19 15 13 5 3 6 5 4 2 6 5 5 2 1 2 2 2 4 6 5 5 6 4 6 4 3 3 5 3 4 5
17 17 18 19 19 19 20 21 22 22 23 24 25 24 23 20 17 11 6 5 7 7 7 5 5 3 6 1 2 3 2 4 3 3 4 1 4 8 7 5 7 6 5 5 1 4 7
14 16 17 19 21 20 20 22 22 23 24 24 25 25 25 22 16 7 6 2 5 6 3 2 1 3 1 2 4 3 3 2 1 4 3 8 7 10 6 3 4 6 6 4 5 1 8
13 15 17 18 19 20 21 22 23 23 24 24 25 24 25 23 16 4 5 6 7 2 5 6 2 2 2 6 2 4 4 0 3 2 4 5 8 6 3 5 5 3 7 5 9 9 15
13 17 17 16 17 19 22 23 24 25 25 25 26 24 24 25 3 3 3 7 5 3 7 9 8 5 6 2 3 2 3 4 3 5 2 3 4 4 3 4 6 7 2 7 10 11 10
12 17 16 16 17 18 20 23 24 26 26 26 27 25 22 11 6 2 7 8 1 5 6 10 6 4 3 4 8 4 2 4 3 4 6 7 1 3 1 6 5 5 8 9 10 12 10
12 15 14 15 18 19 20 22 23 25 27 27 26 26 21 4 4 4 7 3 5 7 5 8 5 6 8 4 3 4 3 3 1 2 2 5 2 3 7 6 4 8 9 13 8 8 7
9 14 15 14 16 18 19 21 23 24 27 29 27 26 11 4 4 6 5 5 6 7 5 7 6 7 5 5 5 3 2 1 1 5 3 6 4 3 6 7 6 8 6 4 6 6 3
9 10 12 13 15 16 18 21 23 25 26 31 29 24 6 6 5 5 5 6 8 3 7 4 4 6 7 6 4 5 5 6 4 2 3 3 8 1 5 5 6 4 7 3 4 5 9
8 9 10 12 14 16 18 20 23 25 26 29 29 6 4 2 5 4 7 8 4 3 6 8 7 8 7 6 4 7 4 1 2 3 3 4 4 2 2 3 6 5 1 5 1 3 6
8 8 9 11 13 15 18 19 22 25 27 27 10 6 3 6 3 6 7 8 4 3 5 6 9 4 7 8 7 7 8 3 4 1 3 4 5 3 3 5 4 7 5 5 4 3 6
8 9 8 9 11 13 17 19 21 25 28 27 6 6 6 3 4 6 9 5 5 7 6 5 5 6 5 5 8 7 5 6 5 5 1 1 4 8 5 8 3 8 6 0 5 2 3
9 8 8 9 11 12 14 17 19 22 28 9 5 5 4 2 7 4 9 5 2 11 6 3 4 3 7 7 7 7 7 2 4 1 3 4 5 7 2 2 3 5 2 3 2 4 5
10 8 7 7 9 10 12 15 16 19 17 8 7 5 2 4 7 9 3 6 7 10 9 7 6 4 5 7 6 6 6 6 6 3 1 4 4 7 9 8 7 9 8 6 6 6 11
10 9 6 5 7 9 11 14 16 17 17 6 6 4 4 3 1 6 5 9 9 7 8 6 4 6 8 7 6 7 8 9 7 5 4 3 7 8 5 9 5 5 8 9 9 8 11
11 10 8 4 6 8 11 14 16 17 17 5 3 3 4 1 4 3 4 1 11 8 8 10 7 11 10 7 8 8 7 8 9 7 5 7 8 10 11 10 10 11 13 12 13 14 14
11 10 8 5 4 6 8 12 15 17 20 5 5 5 2 6 6 7 5 8 8 6 9 13 10 11 9 7 8 4 5 6 8 9 8 7 6 5 12 12 13 16 15 16 14 14 12
10 8 6 4 5 4 6 9 12 13 15 4 1 2 5 1 4 6 5 5 4 3 4 3 9 8 10 7 2 2 4 7 8 8 10 8 7 6 11 2 8 13 16 16 9 11 10
3 2 5 6 5 4 4 6 7 9 10 4 3 4 5 6 5 6 3 3 5 1 3 1 4 11 6 1 1 5 9 9 12 12 11 9 9 8 7 5 13 4 4 1 7 10 9
5 5 6 6 6 5 4 5 5 7 6 7 2 4 4 7 5 8 9 7 4 4 4 3 3 4 2 3 4 5 6 5 6 7 13 12 11 7 7 9 12 10 11 6 6 9 8
9 8 8 7 8 7 6 5 5 5 5 7 3 3 5 6 1 4 6 5 8 7 6 5 4 1 3 5 6 8 5 2 6 7 2 10 14 10 8 9 7 2 5 2 4 11 5
9 8 9 10 11 8 6 5 6 5 4 6 1 3 5 6 2 4 5 4 1 3 5 4 5 6 4 7 9 9 9 2 6 6 7 7 9 15 11 8 8 7 1 2 10 6 8
10 9 11 10 7 7 6 6 6 5 4 6 2 1 5 5 7 5 5 6 3 5 6 6 6 6 6 8 7 5 6 4 5 3 4 8 7 7 10 9 9 4 5 9 9 9 11
9 8 6 7 7 7 7 7 7 6 4 5 4 3 3 6 6 5 8 10 10 9 6 4 5 2 3 5 4 2 5 4 6 5 4 6 5 6 5 3 5 3 4 5 6 8 10
Wind_Direction
31 26 21 15 8 3 0 360 358 356 354 351 349 349 346 343 339 334 328 324 319 314 311 311 312 316 276 181 83 97 162 187 242 303 19 17 47 192 193 184 183 238 156 187 170 237 253
25 19 13 7 5 0 357 357 355 353 351 347 344 344 343 340 337 332 325 316 310 304 301 303 307 310 251 109 100 96 215 217 279 314 20 5 37 23 86 224 266 73 242 214 232 153 124
21 15 10 3 3 0 356 354 353 350 348 345 342 341 339 338 335 331 325 317 306 291 282 287 300 290 251 83 144 230 248 359 342 330 334 42 3 288 222 157 58 204 233 182 195 171 102
17 12 8 4 2 358 355 353 350 348 344 343 341 340 338 337 335 331 325 320 306 273 238 243 269 259 95 106 290 259 233 151 76 136 320 294 265 36 309 58 193 204 231 179 127 185 110
14 10 5 4 359 355 351 350 348 346 343 341 341 339 337 337 334 330 324 320 353 137 180 201 231 259 125 142 200 56 340 40 88 130 99 142 244 348 199 229 183 191 136 261 151 31 325
11 8 4 3 357 354 349 349 347 345 343 340 340 340 337 334 332 329 318 284 117 176 184 218 261 224 169 111 53 22 81 13 84 144 176 210 209 226 191 275 349 30 245 170 276 117 250
9 6 2 1 357 353 349 347 347 344 344 341 340 339 338 335 332 325 274 191 198 175 209 334 113 326 116 95 237 142 162 182 205 202 115 77 282 11 349 342 317 292 281 283 352 83 294
5 3 360 359 356 350 349 345 346 345 342 342 340 339 339 336 331 327 258 344 39 357 174 148 193 252 222 260 177 120 240 261 317 36 205 213 53 353 302 304 290 248 266 259 280 86 299
358 359 359 355 352 347 347 345 345 345 341 341 340 340 339 335 327 262 50 48 326 247 242 141 141 187 117 209 90 70 277 337 355 30 13 19 26 348 202 182 243 220 296 329 311 313 265
353 356 356 351 348 347 344 346 344 344 340 341 339 341 340 329 290 357 81 345 320 219 215 153 182 129 171 194 128 25 10 306 176 15 347 41 59 355 77 93 306 278 62 289 286 294 306
351 354 352 347 346 346 345 344 343 341 339 340 337 338 337 342 323 273 359 330 261 236 234 138 153 83 179 230 125 106 26 240 359 65 271 79 73 5 28 9 326 8 317 290 295 289 302
348 351 349 345 345 346 344 342 341 341 337 336 336 331 333 192 234 21 328 290 236 226 218 155 171 187 174 172 129 115 172 99 306 205 45 95 108 1 3 321 295 306 274 260 267 261 247
342 346 346 343 344 342 342 341 340 341 336 331 333 323 308 303 2 338 309 223 226 251 133 165 175 201 172 164 139 179 152 129 253 220 167 179 124 144 338 297 180 290 293 315 230 201 329
330 333 340 339 342 340 341 341 339 338 337 327 328 316 179 275 318 303 227 218 248 57 182 105 167 178 210 182 162 174 212 164 85 306 165 303 171 352 11 354 340 7 335 96 267 331 329
314 320 330 340 342 342 342 341 338 337 337 330 313 312 239 110 282 244 239 219 304 192 155 166 174 213 178 181 265 212 236 118 79 13 315 268 150 128 16 312 283 101 35 14 236 239 262
310 312 326 337 341 345 345 343 339 337 336 331 315 297 231 344 203 237 236 248 220 179 149 193 223 230 207 178 222 217 182 139 142 42 348 84 260 183 85 222 104 321 101 210 121 290 295
307 309 319 330 336 346 345 345 341 339 337 322 277 286 86 339 221 226 235 229 194 175 177 211 209 189 219 188 238 213 171 133 206 144 333 351 283 140 223 208 203 175 181 199 289 303 290
303 302 308 327 336 343 347 343 345 344 338 319 298 265 56 212 224 227 232 205 224 162 183 155 212 207 203 192 203 224 201 197 170 140 285 74 304 273 329 109 277 270 241 260 247 227 208
282 284 292 316 330 338 343 340 350 346 353 316 307 287 139 269 238 215 180 209 220 178 185 180 183 197 189 192 206 224 199 126 170 217 219 146 197 272 175 180 186 240 215 245 274 273 263
275 269 254 284 319 335 339 346 348 342 344 288 288 283 170 201 356 297 213 217 195 202 191 186 157 172 186 197 205 184 198 174 208 236 82 232 245 241 258 337 338 222 238 236 248 273 261
270 272 226 255 304 329 347 349 343 339 338 281 246 44 10 299 136 283 239 340 214 179 210 192 190 210 195 203 200 215 207 183 202 149 210 224 246 236 256 270 261 261 264 254 254 251 269
269 263 203 244 287 330 344 347 344 339 330 272 309 332 337 288 298 271 180 201 229 172 204 198 231 202 204 223 225 200 240 219 258 164 209 203 252 266 263 250 245 261 250 253 265 257 264
273 181 193 244 283 305 334 347 341 348 328 308 31 211 281 244 245 254 231 239 212 211 191 291 237 196 211 227 253 314 293 283 262 244 208 219 257 246 271 232 258 257 252 247 239 238 270
335 251 245 252 267 285 302 322 341 353 343 313 353 286 261 266 251 263 288 273 236 255 286 175 222 214 78 106 212 246 256 255 248 240 246 227 238 252 275 251 252 61 99 241 271 290 283
278 276 276 276 262 268 275 291 326 341 340 295 307 272 275 265 280 252 247 247 238 208 221 235 88 28 327 177 231 257 215 226 211 246 227 226 233 250 244 237 267 262 215 251 248 295 325
271 269 271 276 271 260 263 270 297 326 333 281 274 300 276 297 192 318 261 236 248 221 182 183 138 106 195 230 214 244 246 313 188 173 227 217 227 232 241 259 257 314 124 338 288 265 64
269 269 266 268 265 243 249 262 274 301 318 292 272 264 267 269 270 260 266 308 271 247 263 149 175 181 227 224 242 250 243 231 235 234 169 167 194 218 229 244 276 84 72 248 246 32 340
274 272 274 271 253 231 242 254 261 282 293 281 63 179 287 274 287 250 247 254 223 252 263 96 203 193 208 233 241 209 251 187 260 254 212 211 212 203 230 238 253 98 188 260 6 329 331
285 278 268 282 264 231 233 241 248 266 270 262 252 176 275 262 322 314 289 284 275 302 299 189 351 355 340 237 221 216 208 193 239 239 182 240 250 319 237 45 112 73 1 324 329 318 331